User: anonymous   Login
Location: Celina Elementary School
(33.3262°N, 96.7767°W)
Time: 00:51:23
(UTC+00:00)
Language:

Cosmos 2221 - Orbit

View from above orbital plane
View from above orbital plane
View from above satellite
View from above satellite

Ground track
Ground track

The orbit data is extracted from the following two-line orbital elements,

1 22236U 92080A   22140.43330019  .00001464  00000-0  15486-3 0  9998
2 22236  82.5065 160.2002 0017528 146.5786 213.6542 14.88432638573661
Epoch (UTC): 20 May 2022 10:23:57
Eccentricity: 0.0017528
inclination: 82.5065°
perigee height: 590 km
apogee height: 615 km
right ascension of ascending node: 160.2002°
argument of perigee: 146.5786°
revolutions per day: 14.88432638
mean anomaly at epoch: 213.6542°
orbit number at epoch: 57366

The dashed part of the orbit path shows where the satellite is in the earth's shadow,  

DLR